Regional Weather Roundup
Issued by NWS Green Bay, WI

Home | Current Version | Previous Version | Graphics & Text | Print | Product List | Glossary Off
Versions: 1 2 3 4 5 6 7 8 9 10 11 12 13 14 15 16 17 18 19 20 21 22 23 24 25 26 27 28 29 30 31 32 33 34 35 36 37 38 39 40 41 42 43 44 45 46 47 48 49 50

000
ASUS43 KGRB 250311
RWRGRB

NORTH-CENTRAL AND NORTHEAST WISCONSIN REGIONAL WEATHER ROUNDUP
NATIONAL WEATHER SERVICE GREEN BAY WI
1000 PM CDT TUE MAY 24 2016

WIZ005-009-010>012-018-019-250400-
NORTH CENTRAL WISCONSIN

CITY           SKY/WX    TMP DP  RH WIND       PRES   REMARKS
IRONWOOD       CLEAR     54  54 100 CALM      29.98
MANITOWISH WTR NOT AVBL
ARBOR VITAE    CLEAR     61  59  93 CALM      29.99R
EAGLE RIVER      N/A     58  57  97 CALM      29.99R
LAND O LAKES   PTCLDY    58  58  97 CALM      30.00R
RHINELANDER    PTCLDY    60  57  89 CALM      29.99R
PHILLIPS       CLEAR     61  58  88 N3        29.98R
ANTIGO         CLEAR     63  57  82 N9        29.98R
TOMAHAWK       CLEAR     60  56  84 CALM      29.99R
MERRILL        CLEAR     64  57  77 NE5       29.98R
$$

WIZ013-073-250400-
NORTHEAST WISCONSIN

CITY           SKY/WX    TMP DP  RH WIND       PRES   REMARKS
IRON MOUNTAIN  MOCLDY    62  60  93 N3        29.96R
MARINETTE      CLEAR     58  57  97 CALM      29.95S
OCONTO         CLEAR     61  61 100 CALM      29.94S
$$

WIZ017-030-035>037-045-250400-
CENTRAL WISCONSIN

CITY           SKY/WX    TMP DP  RH WIND       PRES   REMARKS
MEDFORD        CLEAR     60  60 100 CALM      29.97R
WAUSAU         CLEAR     68  57  68 CALM      29.94R
MOSINEE        CLEAR     66  57  72 CALM      29.97R
MARSHFIELD     CLEAR     69  56  62 CALM      29.95R
WISC RAPIDS    CLEAR     66  57  72 CALM      29.96R
STEVENS POINT  CLEAR     61  55  82 CALM      29.96R
WAUPACA        CLEAR     67  58  72 CALM      29.95R
SHAWANO        CLEAR     64  58  80 CALM      29.94R
CLINTONVILLE   CLEAR     63  54  72 CALM      29.94R
WAUTOMA        CLEAR     64  58  80 CALM      29.95R
$$

WIZ038-039-048-051-250400-
FOX VALLEY

CITY           SKY/WX    TMP DP  RH WIND       PRES   REMARKS
NWS GREEN BAY  CLEAR     66  58  75 N3        29.94R
APPLETON       PTCLDY    70  52  52 W5        29.93R
OSHKOSH        CLEAR     70  58  65 SW3       29.95R
FOND DU LAC    CLEAR     67  61  81 SW3       29.95R
$$

WIZ022-050-052-250400-
EAST CENTRAL WISCONSIN

CITY           SKY/WX    TMP DP  RH WIND       PRES   REMARKS
EPHRAIM        FAIR      58  55  91 E3        29.94S
STURGEON BAY   NOT AVBL
MANITOWOC      PTCLDY    61  56  83 SW3       29.95R
SHEBOYGAN      CLEAR     63  55  75 S6        29.96R
$$

LMZ563-521-522-541>543-250400-
LAKESHORE

STATION/POSITION TIME  TEMP    WIND        PRES    VSBY  WAVE
                       AIR SEA DIR/SP/G                  HT/PER
                 (UTC) (F)     (DEG/KT/KT) (MB)    (MI)  (FT/S)
SHEBOYGAN LKSHOR 0300   62     190/  5/  6 1014.5R
KEWAUNEE LKSHORE 0200   59                 1012.8R
ALGOMA MARINA    0217          210/  5/  6   N/A
NORTHPORT PIER   0200   52     130/  1/  2 1014.2R
N MID LAKE BUOY  0250   48 44  160/  8/ 10 1014.1R         2/ 5
SISTER BAY LKSHO 0204   62      CALM  /  3   N/A
CHAMBERS ISLAND  0200   61      80/  2/  3 1013.9R
MENOMINEE LKSHOR 0200   56                 1012.8R
$$



USA.gov is the U.S. government's official web portal to all federal, state and local government web resources and services.